CW3319 Weather Reports


Display with metric or nautical units.
time (UTC)temp
F
wind
direction
speed
MPH
gust
MPH
rain 1hr
in
rain 24hr
in
rain mn
in
humidity
%
barometer
mb
20260510204932 60 16 0.0 0.0 0.00 0.00 0.00 34 1018.5
20260510203932 60 327 1.0 2.0 0.00 0.00 0.00 35 1018.5
20260510202903 60 236 2.0 3.0 0.00 0.00 0.00 34 1018.6
20260510201931 60 263 1.0 3.0 0.00 0.00 0.00 36 1018.7
20260510200901 59 216 1.0 3.0 0.00 0.00 0.00 36 1018.5
20260510195902 59 280 2.0 4.0 0.00 0.00 0.00 36 1018.6
20260510194902 60 266 3.0 4.0 0.00 0.00 0.00 37 1018.5
20260510193902 59 262 1.0 2.0 0.00 0.00 0.00 37 1018.6
20260510192902 60 297 2.0 3.0 0.00 0.00 0.00 36 1018.6
20260510191903 60 278 4.0 6.0 0.00 0.00 0.00 36 1018.5
20260510190901 60 314 3.0 6.0 0.00 0.00 0.00 39 1018.6
20260510185902 60 299 2.0 4.0 0.00 0.00 0.00 38 1018.6
20260510184902 59 271 1.0 2.0 0.00 0.00 0.00 39 1018.5
20260510184003 60 259 2.0 4.0 0.00 0.00 0.00 38 1018.6
20260510182901 60 323 1.0 2.0 0.00 0.00 0.00 39 1018.6
20260510181902 60 322 4.0 9.0 0.00 0.00 0.00 39 1018.7
20260510180902 59 261 2.0 5.0 0.00 0.00 0.00 39 1018.7
20260510175903 58 313 1.0 3.0 0.00 0.00 0.00 44 1018.8
20260510174901 59 281 2.0 4.0 0.00 0.00 0.00 43 1018.8
20260510173902 58 327 2.0 4.0 0.00 0.00 0.00 44 1018.7
20260510172902 57 273 1.0 3.0 0.00 0.00 0.00 45 1018.6
20260510171902 57 288 2.0 2.0 0.00 0.00 0.00 49 1018.7
20260510170933 57 306 3.0 6.0 0.00 0.00 0.00 45 1018.9
20260510165901 57 33 3.0 5.0 0.00 0.00 0.00 48 1018.8
20260510164902 56 283 1.0 2.0 0.00 0.00 0.00 49 1018.9
20260510163932 56 279 1.0 2.0 0.00 0.00 0.00 52 1018.9
20260510162903 56 353 4.0 6.0 0.00 0.00 0.00 50 1018.9
20260510161902 55 338 3.0 7.0 0.00 0.00 0.00 52 1018.9
20260510160902 54 322 1.0 3.0 0.00 0.00 0.00 54 1018.8
20260510155902 53 332 2.0 3.0 0.00 0.00 0.00 53 1018.8
20260510154902 52 285 1.0 2.0 0.00 0.00 0.00 54 1018.7
20260510153902 52 335 2.0 3.0 0.00 0.00 0.00 54 1018.7
20260510152902 51 291 0.0 1.0 0.00 0.00 0.00 55 1018.5
20260510151933 51 277 0.0 1.0 0.00 0.00 0.00 55 1018.5
20260510150902 51 249 0.0 1.0 0.00 0.00 0.00 55 1018.5
20260510150002 51 348 1.0 1.0 0.00 0.00 0.00 58 1018.5
20260510144902 50 331 1.0 2.0 0.00 0.00 0.00 58 1018.5
20260510143932 50 320 1.0 2.0 0.00 0.00 0.00 58 1018.5
20260510142902 50 2 0.0 1.0 0.00 0.00 0.00 57 1018.5
20260510141933 50 317 0.0 1.0 0.00 0.00 0.00 58 1018.4
20260510140902 50 358 2.0 2.0 0.00 0.00 0.00 57 1018.3
20260510135902 50 290 1.0 2.0 0.00 0.00 0.00 59 1018.2
20260510134902 49 327 1.0 2.0 0.00 0.00 0.00 60 1018.2
20260510133902 49 350 2.0 3.0 0.00 0.00 0.00 62 1018.2
20260510132902 48 4 1.0 2.0 0.00 0.00 0.00 64 1018.3
20260510132003 47 315 0.0 1.0 0.00 0.00 0.00 66 1018.2
20260510130902 46 345 0.0 1.0 0.00 0.00 0.00 66 1018.1
20260510125932 46 327 0.0 0.0 0.00 0.00 0.00 69 1017.9
20260510124902 45 302 0.0 0.0 0.00 0.00 0.00 71 1017.7
20260510123902 45 298 0.0 0.0 0.00 0.00 0.00 72 1017.7
20260510122932 45 296 0.0 0.0 0.00 0.00 0.00 72 1017.6
20260510121902 44 318 0.0 0.0 0.00 0.00 0.00 72 1017.5
20260510120932 44 318 0.0 0.0 0.00 0.00 0.00 72 1017.4
20260510115903 44 316 0.0 0.0 0.00 0.00 0.00 73 1017.3
20260510114902 43 342 0.0 0.0 0.00 0.00 0.00 72 1017.1
20260510113902 43 346 0.0 0.0 0.00 0.00 0.00 71 1017.0
20260510112902 43 348 0.0 0.0 0.00 0.00 0.00 72 1016.8
20260510111902 42 348 0.0 0.0 0.00 0.00 0.00 72 1016.7
20260510110902 42 348 0.0 0.0 0.00 0.00 0.00 71 1016.7
20260510105902 42 348 0.0 0.0 0.00 0.00 0.00 71 1016.5
20260510104902 42 348 0.0 0.0 0.00 0.00 0.00 71 1016.3
20260510103902 42 348 0.0 0.0 0.00 0.00 0.00 71 1016.2
20260510102902 42 355 0.0 0.0 0.00 0.00 0.00 71 1016.2
20260510101932 42 355 0.0 0.0 0.00 0.00 0.00 71 1016.0
20260510100902 42 355 0.0 0.0 0.00 0.00 0.00 72 1015.9
20260510095932 42 355 0.0 0.0 0.00 0.00 0.00 71 1015.8
20260510094932 42 355 0.0 0.0 0.00 0.00 0.00 71 1015.6
20260510093902 42 355 0.0 0.0 0.00 0.00 0.00 70 1015.3
20260510092902 42 355 0.0 0.0 0.00 0.00 0.00 70 1015.3
20260510091932 42 355 0.0 0.0 0.00 0.00 0.00 68 1015.2
20260510090902 42 355 0.0 0.0 0.00 0.00 0.00 69 1015.1
20260510085902 42 355 0.0 0.0 0.00 0.00 0.00 68 1014.9
20260510084902 42 355 0.0 0.0 0.00 0.00 0.00 67 1014.8
20260510083932 43 355 0.0 0.0 0.00 0.00 0.00 64 1014.6
20260510082902 43 355 0.0 0.0 0.00 0.00 0.00 64 1014.5
20260510081901 43 355 0.0 0.0 0.00 0.00 0.00 63 1014.4
20260510080902 43 355 0.0 0.0 0.00 0.00 0.00 63 1014.4
20260510075902 44 355 0.0 0.0 0.00 0.00 0.00 65 1014.3
20260510074932 44 355 0.0 0.0 0.00 0.00 0.00 65 1014.3
20260510073902 44 355 0.0 0.0 0.00 0.00 0.00 65 1014.2
20260510072901 44 355 0.0 0.0 0.00 0.00 0.00 66 1014.2
20260510071902 44 355 0.0 0.0 0.00 0.00 0.00 65 1014.2
20260510070901 44 355 0.0 0.0 0.00 0.00 0.00 63 1014.2
20260510065902 45 355 0.0 0.0 0.00 0.00 0.00 63 1014.2
20260510064932 45 355 0.0 0.0 0.00 0.00 0.00 63 1014.1
20260510063903 45 355 0.0 0.0 0.00 0.00 0.00 62 1014.1
20260510062901 45 355 0.0 0.0 0.00 0.00 0.00 59 1014.1
20260510061902 46 355 0.0 0.0 0.00 0.00 0.00 58 1014.0
20260510061002 46 355 0.0 0.0 0.00 0.00 0.00 55 1014.1
20260510055902 47 355 0.0 0.0 0.00 0.00 0.00 55 1014.1
20260510054902 47 355 0.0 0.0 0.00 0.00 0.00 52 1014.0
20260510053933 48 355 0.0 0.0 0.00 0.00 0.00 51 1013.9
20260510052932 49 355 0.0 0.0 0.00 0.00 0.00 50 1013.8
20260510051902 50 355 0.0 0.0 0.00 0.00 0.00 47 1013.7
20260510050902 50 355 0.0 0.0 0.00 0.00 0.00 47 1013.6
20260510045902 50 357 0.0 0.0 0.00 0.00 0.00 46 1013.6
20260510044902 51 355 0.0 0.0 0.00 0.00 0.00 47 1013.6
20260510044002 51 0 0.0 1.0 0.00 0.00 0.00 45 1013.5
20260510042902 51 327 1.0 3.0 0.00 0.00 0.00 45 1013.5
20260510041902 51 352 1.0 2.0 0.00 0.00 0.00 45 1013.4
20260510040902 52 5 0.0 0.0 0.00 0.00 0.00 47 1013.4
20260510035932 52 321 1.0 4.0 0.00 0.00 0.00 44 1013.2
20260510034902 52 350 1.0 2.0 0.00 0.00 0.00 45 1013.1
20260510033902 52 3 0.0 0.0 0.00 0.00 0.00 44 1013.0
20260510032902 52 335 1.0 2.0 0.00 0.00 0.00 44 1012.8
20260510031902 52 5 0.0 0.0 0.00 0.00 0.00 44 1012.6
20260510030903 52 352 0.0 1.0 0.00 0.00 0.00 44 1012.4
20260510025902 53 355 0.0 1.0 0.00 0.00 0.00 44 1012.3
20260510024902 53 324 0.0 1.0 0.00 0.00 0.00 44 1012.1
20260510023932 53 328 0.0 0.0 0.00 0.00 0.00 43 1011.8
20260510022902 54 268 0.0 0.0 0.00 0.00 0.00 41 1011.6
20260510021902 54 355 0.0 1.0 0.00 0.00 0.00 41 1011.3
20260510020902 54 275 0.0 0.0 0.00 0.00 0.00 42 1011.0
20260510015902 54 301 0.0 1.0 0.00 0.00 0.00 40 1010.8
20260510014932 54 273 1.0 2.0 0.00 0.00 0.00 41 1010.7
20260510013902 55 317 0.0 1.0 0.00 0.00 0.00 43 1010.5
20260510012902 55 329 1.0 2.0 0.00 0.00 0.00 41 1010.3
20260510011902 56 306 0.0 1.0 0.00 0.00 0.00 41 1010.1
20260510010902 56 295 0.0 1.0 0.00 0.00 0.00 37 1010.0
20260510005902 57 341 2.0 5.0 0.00 0.00 0.00 35 1009.9
20260510004902 57 312 2.0 5.0 0.00 0.00 0.00 35 1009.8
20260510003902 57 283 0.0 1.0 0.00 0.00 0.00 36 1009.7
20260510002902 58 307 1.0 2.0 0.00 0.00 0.00 37 1009.5
20260510001932 58 301 1.0 2.0 0.00 0.00 0.00 35 1009.5
20260510000902 58 2 2.0 4.0 0.00 0.00 0.00 35 1009.4
20260509235902 58 357 2.0 3.0 0.00 0.00 0.00 35 1009.2
20260509234902 59 318 2.0 5.0 0.00 0.00 0.00 37 1009.0
20260509233902 59 297 1.0 2.0 0.00 0.00 0.00 35 1008.9
20260509232902 59 315 2.0 3.0 0.00 0.00 0.00 36 1008.9
20260509231902 59 296 0.0 3.0 0.00 0.00 0.00 36 1008.8
20260509230902 59 358 3.0 7.0 0.00 0.00 0.00 34 1008.6
20260509225901 59 4 1.0 2.0 0.00 0.00 0.00 35 1008.6
20260509224902 59 346 3.0 9.0 0.00 0.00 0.00 33 1008.5
20260509223902 59 344 2.0 4.0 0.00 0.00 0.00 33 1008.3
20260509222932 59 306 4.0 6.0 0.00 0.00 0.00 33 1008.3
20260509221902 59 337 1.0 1.0 0.00 0.00 0.00 34 1008.2
20260509220902 60 284 3.0 5.0 0.00 0.00 0.00 34 1008.3
20260509215902 60 334 2.0 3.0 0.00 0.00 0.00 33 1008.1
20260509214932 60 299 3.0 7.0 0.00 0.00 0.00 33 1007.9
20260509213902 60 299 1.0 3.0 0.00 0.00 0.00 32 1007.9
20260509212901 60 289 2.0 4.0 0.00 0.00 0.00 32 1007.9
20260509211902 60 282 1.0 3.0 0.00 0.00 0.00 32 1007.7
20260509210932 60 341 3.0 5.0 0.00 0.00 0.00 34 1007.6
20260509205902 60 314 2.0 3.0 0.00 0.00 0.00 34 1007.5